This demonstration page uses our WeatherBlox Daily Observations layout. Learn more.

40.92945, -100.16068

Hourly Observations for December 12, 2015

Temp ( °F °C ) Dew Point ( °F °C ) Humidity (%) Winds ( mph kmh ) Pressure ( in mb ) Visibility ( mi km ) Precip ( " mm )
12:15 am 00:15 Cloudy 34 1.1 31 -0.8 87 87 NNE 8 13 29.94 1014 10 16.0934 N/A
12:35 am 00:35 Cloudy 34 1.1 31 -0.7 88 88 N 9 15 29.91 1013 10 16.0934 N/A
12:55 am 00:55 Cloudy 34 1 30 -1 87 87 N 10 17 29.91 1013 10 16.0934 N/A
1:15 am 01:15 Cloudy 34 1 30 -1 87 87 NNE 7 11 29.91 1013 10 16.0934 N/A
1:35 am 01:35 Cloudy 33 0.8 30 -1 88 88 N 6 9 29.91 1013 10 16.0934 N/A
1:55 am 01:55 Mostly Cloudy 33 0.6 30 -1 89 89 N 9 15 29.91 1013 10 16.0934 N/A
2:15 am 02:15 Mostly Cloudy 33 0.5 30 -1 90 90 N 7 11 29.91 1013 10 16.0934 N/A
2:35 am 02:35 Cloudy 33 0.6 30 -1 89 89 N 9 15 29.91 1013 10 16.0934 N/A
2:55 am 02:55 Cloudy 33 0.7 31 -0.8 90 90 N 8 13 29.91 1013 10 16.0934 N/A
3:15 am 03:15 Cloudy 33 0.7 31 -0.8 90 90 N 10 17 29.91 1013 10 16.0934 N/A
3:35 am 03:35 Cloudy 33 0.8 31 -0.7 90 90 N 7 11 29.91 1013 10 16.0934 N/A
3:55 am 03:55 Cloudy 33 0.8 31 -0.7 90 90 N 9 15 29.91 1013 10 16.0934 N/A
4:15 am 04:15 Cloudy 33 0.8 31 -0.7 90 90 NNE 9 15 29.91 1013 10 16.0934 N/A
4:35 am 04:35 Cloudy 33 0.7 31 -0.8 90 90 NE 7 11 29.91 1013 10 16.0934 N/A
4:55 am 04:55 Cloudy 33 0.7 31 -0.7 90 90 NNE 8 13 29.91 1013 10 16.0934 N/A
5:15 am 05:15 Cloudy 33 0.5 30 -1 90 90 NNE 12 19 29.91 1013 10 16.0934 N/A
5:35 am 05:35 Cloudy 33 0.4 30 -1.1 90 90 NNE 12 19 29.91 1013 10 16.0934 N/A
5:55 am 05:55 Cloudy 33 0.5 30 -1 90 90 NNE 7 11 29.91 1013 10 16.0934 N/A
6:15 am 06:15 Cloudy 33 0.5 30 -1 90 90 ENE 6 9 29.94 1014 10 16.0934 N/A
6:35 am 06:35 Cloudy 33 0.3 30 -1.2 90 90 NE 9 15 29.94 1014 10 16.0934 N/A
6:55 am 06:55 Cloudy 33 0.4 30 -1.2 89 89 NE 9 15 29.94 1014 10 16.0934 N/A
7:15 am 07:15 Cloudy 33 0.5 30 -1.1 89 89 NE 8 13 29.97 1015 10 16.0934 N/A
7:35 am 07:35 Cloudy 33 0.3 30 -1.2 90 90 NE 8 13 29.97 1015 10 16.0934 N/A
7:55 am 07:55 Cloudy 33 0.4 30 -1.1 90 90 ENE 12 19 29.97 1015 10 16.0934 N/A
8:15 am 08:15 Cloudy 33 0.3 30 -1.1 90 90 ENE 12 19 29.97 1015 10 16.0934 N/A
8:35 am 08:35 Cloudy 33 0.3 30 -1 91 91 ENE 8 13 29.97 1015 10 16.0934 N/A
8:55 am 08:55 Cloudy 33 0.5 30 -1 90 90 NE 8 13 29.97 1015 10 16.0934 N/A
9:15 am 09:15 Cloudy 33 0.6 31 -0.7 91 91 NE 12 19 30 1016 10 16.0934 N/A
9:35 am 09:35 Cloudy 33 0.8 31 -0.5 91 91 ENE 8 13 30 1016 10 16.0934 N/A
9:55 am 09:55 Cloudy 34 1.1 32 -0.2 91 91 ENE 12 19 30 1016 10 16.0934 N/A
10:15 am 10:15 Cloudy 35 1.5 32 -0.1 89 89 ENE 14 22 30 1016 10 16.0934 N/A
10:35 am 10:35 Cloudy 35 1.5 31 -0.4 87 87 ENE 13 20 30 1016 10 16.0934 N/A
10:55 am 10:55 Cloudy 35 1.7 31 -0.4 86 86 NE 10 17 30 1016 10 16.0934 N/A
11:15 am 11:15 Cloudy 35 1.6 31 -0.6 85 85 ENE 10 17 30 1016 10 16.0934 N/A
11:35 am 11:35 Cloudy 35 1.7 31 -0.5 86 86 ENE 10 17 29.97 1015 10 16.0934 N/A
11:55 am 11:55 Cloudy 35 1.8 31 -0.5 85 85 NE 13 20 29.97 1015 10 16.0934 N/A
12:15 pm 12:15 Cloudy 35 1.7 31 -0.4 86 86 NE 12 19 29.94 1014 10 16.0934 N/A
12:35 pm 12:35 Cloudy 36 2 32 -0.2 86 86 NE 9 15 29.97 1015 10 16.0934 N/A
12:55 pm 12:55 Cloudy 35 1.9 32 -0.2 86 86 ENE 8 13 29.97 1015 10 16.0934 N/A
1:15 pm 13:15 Cloudy 35 1.8 31 -0.3 86 86 NNE 9 15 29.97 1015 10 16.0934 N/A
1:35 pm 13:35 Cloudy 35 1.8 32 -0.2 87 87 NNE 9 15 29.94 1014 10 16.0934 N/A
1:55 pm 13:55 Cloudy 35 1.7 32 -0.2 87 87 NNE 9 15 29.97 1015 10 16.0934 N/A
2:15 pm 14:15 Cloudy 35 1.7 31 -0.5 86 86 NNE 10 17 29.94 1014 10 16.0934 N/A
2:35 pm 14:35 Cloudy 35 1.8 31 -0.5 85 85 NNE 13 20 29.97 1015 10 16.0934 N/A
2:55 pm 14:55 Cloudy 35 1.8 31 -0.5 85 85 NNE 12 19 29.97 1015 10 16.0934 N/A
3:15 pm 15:15 Cloudy 35 1.7 31 -0.5 86 86 NNE 13 20 29.94 1014 10 16.0934 N/A
3:35 pm 15:35 Cloudy 35 1.6 31 -0.4 87 87 NNE 14 22 29.94 1014 10 16.0934 N/A
3:55 pm 15:55 Cloudy 35 1.6 32 -0.2 88 88 NE 13 20 29.94 1014 10 16.0934 N/A
4:15 pm 16:15 Cloudy 35 1.5 31 -0.5 87 87 NNE 13 20 29.94 1014 10 16.0934 N/A
4:35 pm 16:35 Cloudy 34 1.2 31 -0.5 89 89 NE 15 24 29.97 1015 10 16.0934 N/A
4:55 pm 16:55 Cloudy 35 1.4 31 -0.4 88 88 NE 14 22 29.94 1014 10 16.0934 N/A
5:15 pm 17:15 Cloudy 34 1.3 31 -0.5 88 88 NE 14 22 29.97 1015 10 16.0934 N/A
5:35 pm 17:35 Cloudy 34 1.3 31 -0.5 88 88 NE 12 19 29.94 1014 10 16.0934 N/A
5:55 pm 17:55 Cloudy 34 1.2 31 -0.5 89 89 NE 10 17 29.94 1014 10 16.0934 N/A
6:15 pm 18:15 Cloudy 34 1 31 -0.5 90 90 NNE 15 24 29.94 1014 10 16.0934 N/A
6:35 pm 18:35 Cloudy 33 0.8 31 -0.5 91 91 NE 17 28 29.91 1013 10 16.0934 N/A
6:55 pm 18:55 Cloudy 33 0.7 31 -0.4 92 92 NNE 15 24 29.91 1013 7 11.26538 N/A
7:15 pm 19:15 Cloudy with Light Rain 33 0.5 31 -0.3 94 94 NE 14 22 29.91 1013 4 6.43736 N/A
7:35 pm 19:35 Cloudy with Nearby Thunderstorms 33 0.5 32 -0.2 95 95 NE 13 20 29.94 1014 5 8.0467 N/A
7:55 pm 19:55 Cloudy with Rain 33 0.5 32 -0.2 95 95 NE 9 15 29.94 1014 5 8.0467 N/A
8:15 pm 20:15 Cloudy with Rain 33 0.4 32 -0.2 96 96 NE 13 20 29.94 1014 5 8.0467 0.02 0.508
8:35 pm 20:35 Cloudy with Light Rain 33 0.5 32 -0.1 96 96 NNE 13 20 29.94 1014 5 8.0467 0.04 1.016
8:55 pm 20:55 Cloudy with Mist and Fog 33 0.5 32 -0.1 96 96 NNE 10 17 29.97 1015 5 8.0467 0.04 1.016
9:15 pm 21:15 Cloudy with Mist and Fog 33 0.3 32 -0.2 96 96 N 12 19 29.94 1014 5 8.0467 N/A
9:35 pm 21:35 Cloudy 33 0.3 32 -0.2 96 96 NNE 9 15 29.94 1014 7 11.26538 N/A
9:55 pm 21:55 Cloudy 33 0.4 32 -0.2 96 96 N 8 13 29.97 1015 7 11.26538 N/A
10:15 pm 22:15 Cloudy 33 0.4 32 -0.2 96 96 N 8 13 29.97 1015 10 16.0934 N/A
10:55 pm 22:55 Cloudy 33 0.3 31 -0.3 96 96 N 12 19 29.94 1014 10 16.0934 N/A
11:15 pm 23:15 Cloudy 33 0.4 31 -0.3 95 95 N 9 15 29.94 1014 10 16.0934 N/A
11:35 pm 23:35 Cloudy 33 0.4 31 -0.5 94 94 N 10 17 29.91 1013 10 16.0934 N/A
11:55 pm 23:55 Cloudy 33 0.4 31 -0.4 94 94 N 10 17 29.94 1014 10 16.0934 0 0

Powered by AerisWeather